This is the latest recevied weather packets stored in our database for station/object OE6ACM-10. If no packets are shown the sender has not sent any weather packets the latest 1 day(s).
| Time | Temp. | Humidity | Pressure | Rain* | Wind** | Luminosity | Snow |
|---|---|---|---|---|---|---|---|
| 1778080962 | 31.67° C | 100% | 917.6 hPa | - | - | - | - |
| 1778080662 | 31.11° C | 100% | 917.6 hPa | - | - | - | - |
| 1778080362 | 31.11° C | 100% | 917.6 hPa | - | - | - | - |
| 1778078862 | 31.11° C | 100% | 917.6 hPa | - | - | - | - |
| 1778078562 | 31.11° C | 97% | 917.5 hPa | - | - | - | - |
| 1778077962 | 31.11° C | 95% | 917.7 hPa | - | - | - | - |
| 1778075562 | 33.33° C | 80% | 917.8 hPa | - | - | - | - |
| 1778075262 | 34.44° C | 76% | 917.8 hPa | - | - | - | - |
| 1778074962 | 35.56° C | 72% | 917.8 hPa | - | - | - | - |
| 1778074362 | 34.44° C | 77% | 918 hPa | - | - | - | - |
| 1778074062 | 35° C | 75% | 917.9 hPa | - | - | - | - |
| 1778073762 | 34.44° C | 78% | 918 hPa | - | - | - | - |
| 1778073462 | 33.33° C | 86% | 918.1 hPa | - | - | - | - |
| 1778073162 | 32.78° C | 84% | 918.2 hPa | - | - | - | - |
| 1778072862 | 33.33° C | 80% | 918 hPa | - | - | - | - |
| 1778072562 | 33.33° C | 80% | 918.2 hPa | - | - | - | - |
| 1778072262 | 34.44° C | 75% | 918.2 hPa | - | - | - | - |
| 1778071962 | 34.44° C | 73% | 918.3 hPa | - | - | - | - |
| 1778071662 | 33.89° C | 76% | 918.3 hPa | - | - | - | - |
| 1778071062 | 36.11° C | 64% | 918.1 hPa | - | - | - | - |
| 1778070762 | 36.11° C | 59% | 918.4 hPa | - | - | - | - |
| 1778069262 | 37.78° C | 59% | 918.1 hPa | - | - | - | - |
| 1778068962 | 36.67° C | 70% | 918.2 hPa | - | - | - | - |
| 1778068662 | 35° C | 70% | 918.4 hPa | - | - | - | - |
| 1778068362 | 35.56° C | 76% | 918.1 hPa | - | - | - | - |
* Rain since midnight (hover to see other rain measurements)
** Current wind speed in m/s (hover to see current wind gust speed)